TimeEST,TemperatureF,Dew PointF,Humidity,Sea Level PressureIn,VisibilityMPH,Wind Direction,Wind SpeedMPH,Gust SpeedMPH,PrecipitationIn,Events,Conditions,WindDirDegrees,DateUTC
12:15 AM,33.8,24.8,70,30.07,10.0,ESE,25.3,31.1,N/A,,Clear,120,2013-02-27 05:15:00
12:35 AM,33.8,24.8,70,30.05,10.0,ESE,20.7,28.8,N/A,,Clear,110,2013-02-27 05:35:00
12:55 AM,33.8,24.8,70,30.06,10.0,ESE,20.7,36.8,N/A,,Clear,120,2013-02-27 05:55:00
1:15 AM,33.8,24.8,70,30.05,10.0,ESE,25.3,29.9,N/A,,Clear,120,2013-02-27 06:15:00
1:35 AM,33.8,24.8,70,30.03,10.0,ESE,17.3,32.2,N/A,,Clear,120,2013-02-27 06:35:00
1:55 AM,33.8,24.8,70,30.03,10.0,ESE,25.3,33.4,N/A,,Partly Cloudy,120,2013-02-27 06:55:00
2:15 AM,33.8,24.8,70,30.04,10.0,SE,17.3,31.1,N/A,,Mostly Cloudy,130,2013-02-27 07:15:00
2:35 AM,33.8,24.8,70,30.06,10.0,SE,12.7,28.8,N/A,,Overcast,140,2013-02-27 07:35:00
2:55 AM,33.8,24.8,70,30.06,10.0,SSE,11.5,21.9,N/A,,Overcast,160,2013-02-27 07:55:00
3:15 AM,33.8,24.8,70,30.05,9.0,SSE,9.2,23.0,N/A,,Overcast,150,2013-02-27 08:15:00
3:35 AM,32.0,26.6,80,30.03,6.0,SE,10.4,16.1,N/A,,Overcast,140,2013-02-27 08:35:00
3:55 AM,32.0,26.6,80,30.01,2.5,SE,8.1,19.6,N/A,,Overcast,130,2013-02-27 08:55:00
4:35 AM,32.0,28.4,87,29.98,3.0,SE,8.1,17.3,N/A,,Overcast,130,2013-02-27 09:35:00
4:55 AM,30.2,28.4,93,29.97,1.8,SE,12.7,17.3,N/A,,Overcast,130,2013-02-27 09:55:00
5:15 AM,30.2,28.4,93,29.95,3.0,ESE,9.2,18.4,N/A,,Overcast,120,2013-02-27 10:15:00
5:35 AM,30.2,26.6,86,29.93,4.0,SE,13.8,21.9,0.01,,Overcast,130,2013-02-27 10:35:00
5:55 AM,32.0,26.6,80,29.93,10.0,ESE,16.1,20.7,0.01,,Overcast,120,2013-02-27 10:55:00
6:15 AM,32.0,28.4,87,29.92,5.0,SE,11.5,20.7,N/A,,Overcast,130,2013-02-27 11:15:00
6:35 AM,32.0,28.4,87,29.90,3.0,SE,9.2,18.4,N/A,,Overcast,130,2013-02-27 11:35:00
6:55 AM,32.0,28.4,87,29.88,3.0,ESE,11.5,19.6,N/A,,Overcast,120,2013-02-27 11:55:00
7:15 AM,33.8,28.4,81,29.87,7.0,ESE,13.8,26.5,N/A,,Overcast,120,2013-02-27 12:15:00
7:55 AM,35.6,28.4,75,29.86,10.0,South,3.5,-,N/A,,Overcast,190,2013-02-27 12:55:00
8:15 AM,35.6,28.4,75,29.85,10.0,ESE,16.1,26.5,N/A,,Overcast,110,2013-02-27 13:15:00
8:35 AM,35.6,28.4,75,29.83,10.0,ESE,15.0,27.6,N/A,,Overcast,110,2013-02-27 13:35:00
8:55 AM,33.8,30.2,87,29.82,6.0,ESE,11.5,25.3,N/A,,Overcast,120,2013-02-27 13:55:00
9:16 AM,33.8,30.2,87,29.81,10.0,ESE,13.8,21.9,N/A,,Overcast,120,2013-02-27 14:16:00
9:35 AM,35.6,30.2,81,29.79,10.0,ESE,19.6,36.8,N/A,,Overcast,120,2013-02-27 14:35:00
10:15 AM,35.6,30.2,81,29.79,10.0,SE,11.5,23.0,N/A,,Overcast,140,2013-02-27 15:15:00
10:35 AM,35.6,30.2,81,29.78,9.0,ESE,11.5,19.6,0.01,,Overcast,120,2013-02-27 15:35:00
10:55 AM,35.6,30.2,81,29.78,5.0,ESE,16.1,24.2,0.02,,Overcast,120,2013-02-27 15:55:00
11:15 AM,35.6,32.0,87,29.77,5.0,ESE,15.0,24.2,0.02,,Overcast,120,2013-02-27 16:15:00
11:35 AM,35.6,30.2,81,29.75,5.0,ESE,17.3,27.6,0.03,,Overcast,110,2013-02-27 16:35:00
11:55 AM,35.6,32.0,87,29.74,9.0,ESE,12.7,27.6,0.04,,Overcast,110,2013-02-27 16:55:00
12:15 PM,37.4,30.2,75,29.72,10.0,ESE,12.7,29.9,0.01,,Overcast,110,2013-02-27 17:15:00
12:35 PM,37.4,32.0,81,29.72,10.0,ESE,10.4,18.4,0.01,,Overcast,120,2013-02-27 17:35:00
12:55 PM,37.4,32.0,81,29.70,10.0,ESE,11.5,19.6,0.02,,Overcast,120,2013-02-27 17:55:00
1:15 PM,37.4,30.2,75,29.68,10.0,ESE,17.3,27.6,N/A,,Overcast,110,2013-02-27 18:15:00
1:35 PM,35.6,32.0,87,29.70,10.0,SE,8.1,25.3,0.01,,Overcast,140,2013-02-27 18:35:00
1:55 PM,35.6,32.0,87,29.68,5.0,ESE,17.3,21.9,0.05,,Overcast,110,2013-02-27 18:55:00
2:15 PM,35.6,32.0,87,29.68,4.0,ESE,19.6,26.5,0.03,,Overcast,110,2013-02-27 19:15:00
2:55 PM,35.6,32.0,87,29.66,10.0,ESE,16.1,24.2,0.04,,Overcast,120,2013-02-27 19:55:00
3:15 PM,35.6,32.0,87,29.65,8.0,ESE,19.6,32.2,0.02,,Overcast,110,2013-02-27 20:15:00
3:35 PM,35.6,30.2,81,29.64,9.0,ESE,16.1,29.9,0.02,,Overcast,110,2013-02-27 20:35:00
3:55 PM,35.6,30.2,81,29.64,10.0,ESE,20.7,31.1,0.03,,Overcast,110,2013-02-27 20:55:00
4:35 PM,33.8,30.2,87,29.64,9.0,SSE,12.7,21.9,0.01,,Overcast,150,2013-02-27 21:35:00
4:55 PM,33.8,30.2,87,29.64,7.0,ESE,15.0,23.0,0.01,,Overcast,120,2013-02-27 21:55:00
5:15 PM,33.8,30.2,87,29.63,4.0,ESE,18.4,32.2,0.02,,Overcast,110,2013-02-27 22:15:00
5:35 PM,33.8,30.2,87,29.63,5.0,ESE,18.4,25.3,0.03,,Overcast,110,2013-02-27 22:35:00
5:55 PM,33.8,30.2,87,29.64,3.0,SSE,8.1,-,0.03,,Overcast,150,2013-02-27 22:55:00
6:15 PM,33.8,30.2,87,29.64,4.0,SSW,5.8,-,0.01,,Overcast,210,2013-02-27 23:15:00
6:35 PM,33.8,30.2,87,29.65,6.0,SSE,11.5,18.4,0.01,,Overcast,150,2013-02-27 23:35:00
7:15 PM,33.8,30.2,87,29.62,8.0,ESE,13.8,24.2,N/A,,Mostly Cloudy,110,2013-02-28 00:15:00
7:35 PM,33.8,30.2,87,29.60,4.0,ESE,15.0,31.1,N/A,,Overcast,120,2013-02-28 00:35:00
7:55 PM,33.8,30.2,87,29.61,3.0,ESE,16.1,25.3,N/A,,Overcast,120,2013-02-28 00:55:00
8:15 PM,33.8,28.4,81,29.62,5.0,SE,10.4,20.7,N/A,,Overcast,140,2013-02-28 01:15:00
8:35 PM,33.8,28.4,81,29.62,10.0,SE,16.1,23.0,N/A,,Overcast,140,2013-02-28 01:35:00
9:15 PM,32.0,28.4,87,29.61,7.0,ESE,19.6,26.5,N/A,,Overcast,120,2013-02-28 02:15:00
9:55 PM,32.0,28.4,87,29.61,10.0,SSE,8.1,19.6,N/A,,Overcast,150,2013-02-28 02:55:00
10:15 PM,32.0,28.4,87,29.61,10.0,SE,12.7,-,N/A,,Overcast,140,2013-02-28 03:15:00
10:35 PM,33.8,26.6,75,29.61,10.0,SSE,10.4,20.7,N/A,,Overcast,150,2013-02-28 03:35:00
10:55 PM,33.8,26.6,75,29.61,10.0,SSE,8.1,21.9,N/A,,Overcast,160,2013-02-28 03:55:00
11:15 PM,32.0,28.4,87,29.61,10.0,SE,11.5,16.1,N/A,,Overcast,140,2013-02-28 04:15:00
11:35 PM,32.0,28.4,87,29.61,10.0,SSW,5.8,16.1,N/A,,Overcast,200,2013-02-28 04:35:00